STARLINK-3714, 52094

Orbit data source: Space-Track

STARLINK-3714, 52094 is a payload satellite owned by SpaceX/Seattle (US) in LEO that was launched on Sat, 19 Mar 2022 UTC via an FALCON 9 launch vehicle from the Air Force Eastern Test Range (AFETR). Payload-class satellites include a variety of spacecraft equipped with specific instruments for various scientific and technological missions. These include communications satellites like Starlink; space stations such as the ISS; scientific satellites like the Hubble; Earth observation satellites from companies like Planet Labs, Umbra, and HawkEye 360; GPS; miniature CubeSats for education and research; and military/defense satellites.

Loading next visibility...
Identifier
52094, 2022-029G
Orbit
LEO
Country
Flag of USUS
Related business
Manufacturer
SpaceX/Seattle
Mission
Operational Commercial Communications
Bus & Motor
STARLINK, Unknown motor
Mass
297 kg wet, ~275 kg dry
Launch date (UTC)
2022-03-19 (4 years ago)
Launch vehicle
FALCON 9
Launch site
Air Force Eastern Test Range (AFETR)
Object type
Payload
Rocket body
Debris
Shape & HBR
Box + 1 Pan, 10.1 m
Radar Cross Section
13.562 m², Large (>1 m²)

Expand to show TLE details & history
Last TLE update: 2 days ago

TLE from 2 days ago
0 STARLINK-3714
1 52094U 22029G   26171.21659818  .00000129  00000-0  26215-4 0  9994
2 52094  53.1605 348.7451 0001182  87.2843 272.8283 15.08835268236131
Epoch: 2026-06-20T05:11Z
TLE epoch observation values (Epoch: 2026-06-20T05:11:54.082Z)
Latitude
-0.00009°
Longitude
2.33529°
Altitude
540.609 km
Speed
7.593 km/s
True Right ascension
23h 14m 58s
True Declination
0° 00' 00"
Sunlit
Object was in daylight at epoch
Visualization orbit readout
Latitude
Unknown
Longitude
Unknown
Altitude
Unknown
Speed
Unknown
Apparent Right ascension
Unknown
Apparent Declination
Unknown
Sunlit
N/A
Visualization observer readout
Local Sidereal Time
21:26:30
Azimuth
Unknown
Elevation
Unknown
Doppler factor
Unknown
Orbital elements
Apogee altitude
540.83 km
Perigee altitude
539.194 km
Semi-major axis
6,918.149 km
Eccentricity
0.00012
Inclination
53.1605°
RAAN
348.7451°
Arg. of periapsis
87.2843°
True anomaly
272.81477°
Mean anomaly
272.8283°
Eccentric anomaly
272.82154°
Mean motion
3.77188 °/min
Orbital period
95.44 mins
BSTAR
0.000026215
Loading maneuver chart data...
Computing Atmospheric mass density...
Loading historical data...
Loading historical data...
Loading historical data...
Loading historical data...
Loading historical data...
Loading historical data...
Loading historical data...

Documentation

Showing up to 5 results
|